Surface/Precipitation History
03/21/2017 16:19  to  3/22/2017 16:19
Change End Date:
Date/Time
(MDT)
Sf
Temp Chem Water Layer Surface Precipitation
Sfc Pvt Sub Frz Factor Pct Dpth DpthThk IcePct Cond Salin FI Type Intens Accum Rate
03/22/2017 16:10 Wet 52.2F - 41F 14F 5 38% 0.70 in - 0% 90 mhos 11303 - None None - -
03/22/2017 16:02 Wet 52.3F - 41F 3F 5 50% 0.80 in - 0% 102 mhos 15000 - None None - -
03/22/2017 15:55 Wet 52.5F - 41F 3F 5 50% 0.70 in - 0% 112 mhos 15000 - None None - -
03/22/2017 15:52 Wet 52.5F - 41F 3F 5 50% 0.70 in - 0% 116 mhos 15000 - Yes - - -
03/22/2017 15:42 Wet 52.3F - 41F 3F 5 50% 0.70 in - 0% 132 mhos 15000 - None None - -
03/22/2017 15:40 Wet 52.2F - 41F 3F 5 50% 0.70 in - 0% 136 mhos 15000 - None None - -
03/22/2017 15:32 Wet 51.8F - 41F 3F 5 50% 0.70 in - 0% 150 mhos 15000 - None None - -
03/22/2017 15:25 Wet 51.8F - 41F 3F 5 50% 0.70 in - 0% 167 mhos 15000 - None None - -
03/22/2017 15:22 Wet 51.8F - 41F 3F 5 50% 0.70 in - 0% 173 mhos 15000 - None None - -
03/22/2017 15:12 Wet 52.9F - 41F 3F 5 50% 0.70 in - 0% 211 mhos 15000 - None None - -
03/22/2017 15:10 Wet 52.9F - 41F 3F 5 50% 0.70 in - 0% 219 mhos 15000 - None None - -
03/22/2017 15:02 Wet 53.4F - 41F 3F 5 50% 0.70 in - 0% 259 mhos 15000 - None None - -
03/22/2017 14:55 Wet 53.6F - 41F 3F 5 50% 0.70 in - 0% 285 mhos 15000 - None None - -
03/22/2017 14:52 Wet 53.6F - 41F 3F 5 50% 0.70 in - 0% 300 mhos 15000 - None None - -
03/22/2017 14:42 Wet 54.0F - 41F 3F 5 50% 0.70 in - 0% 380 mhos 15000 - None None - -
Date/Time
(MDT)
Sf
Temp Chem Water Layer Surface Precipitation
Sfc Pvt Sub Frz Factor Pct Dpth DpthThk IcePct Cond Salin FI Type Intens Accum Rate
03/22/2017 14:40 Wet 54.3F - 41F 3F 5 50% 0.70 in - 0% 407 mhos 15000 - None None - -
03/22/2017 14:32 Dry 54.7F - 41F - - - - - - 476 mhos 15000 - None None - -
03/22/2017 14:25 Error - - 41F - - - - - - - - - None None - -
03/22/2017 14:22 Error - - 41F - - - - - - - - - None None - -
03/22/2017 14:12 Wet 54.1F - 41F 3F 5 50% 0.70 in - 0% 714 mhos 15000 - None None - -
03/22/2017 14:10 Wet 54.5F - 41F 3F 5 50% 0.70 in - 0% 714 mhos 15000 - Yes - - -
03/22/2017 14:01 Wet 54.3F - 41F 3F 5 50% 0.70 in - 0% 817 mhos 15000 - Yes - - -
03/22/2017 13:55 Wet 53.6F - 41F 3F 5 50% 0.70 in - 0% 955 mhos 15000 - Yes - - -
03/22/2017 13:51 Wet 53.4F - 41F 3F 5 50% 0.70 in - 0% 955 mhos 15000 - Yes - - -
03/22/2017 13:41 Wet 53.8F - 41F 3F 5 50% 0.70 in - 0% 1143 mhos 15000 - Yes - - -
03/22/2017 13:40 Wet 53.8F - 41F 3F 5 50% 0.70 in - 0% 1143 mhos 15000 - Yes - - -
03/22/2017 13:31 Wet 53.8F - 41F 3F 5 50% 0.70 in - 0% 1432 mhos 15000 - Yes - - -
03/22/2017 13:25 Wet 54.0F - 41F 3F 5 50% 0.70 in - 0% 1432 mhos 15000 - Yes - - -
03/22/2017 13:21 Wet 53.8F - 41F 3F 5 50% 0.70 in - 0% 1432 mhos 15000 - Yes - - -
03/22/2017 13:11 Wet 52.5F - 41F 3F 5 50% 0.70 in - 0% 1916 mhos 15000 - Yes - - -
Date/Time
(MDT)
Sf
Temp Chem Water Layer Surface Precipitation
Sfc Pvt Sub Frz Factor Pct Dpth DpthThk IcePct Cond Salin FI Type Intens Accum Rate
03/22/2017 13:10 Wet 52.5F - 41F 3F 5 50% 0.70 in - 0% 1916 mhos 15000 - Yes - - -
03/22/2017 13:01 Wet 50.7F - 41F 3F 5 50% 0.70 in - 0% 1916 mhos 15000 - Yes - - -
03/22/2017 12:55 Wet 51.1F - 41F 3F 5 50% 0.70 in - 0% 1916 mhos 15000 - Yes - - -
03/22/2017 12:51 Wet 50.4F - 41F 3F 5 50% 0.70 in - 0% 1916 mhos 15000 - Yes - - -
03/22/2017 12:41 Wet 50.0F - 41F 3F 5 50% 0.70 in - 0% 1916 mhos 15000 - Yes - - -
03/22/2017 12:40 Wet 49.8F - 41F 3F 5 50% 0.70 in - 0% 1916 mhos 15000 - Yes - - -
03/22/2017 12:31 Wet 50.0F - 41F 3F 5 50% 0.70 in - 0% 1916 mhos 15000 - Yes - - -
03/22/2017 12:25 Wet 50.2F - 41F 3F 10 50% 0.00 in - 0% 2010 mhos 15000 - Yes - - -
03/22/2017 12:21 Wet 49.3F - 41F 3F 45 50% 0.00 in - 0% 2009 mhos 15000 - Yes - - -
03/22/2017 12:11 Wet 48.9F - 41F 3F 95 50% 0.00 in - 0% 1994 mhos 15000 - Yes - - -
03/22/2017 12:10 Wet 48.7F - 41F 3F 95 50% 0.00 in - 0% 3017 mhos 15000 - Yes - - -
03/22/2017 12:01 Wet 49.1F - 41F 3F 95 50% 0.00 in - 0% 2989 mhos 15000 - Yes - - -
03/22/2017 11:55 Wet 46.4F - 41F 3F 95 50% 0.00 in - 0% 2969 mhos 15000 - Yes - - -
03/22/2017 11:51 Wet 46.4F - 41F 3F 95 50% 0.00 in - 0% 2939 mhos 15000 - Yes - - -
03/22/2017 11:41 Wet 46.0F - 41F 3F 95 50% 0.10 in - 0% 2913 mhos 15000 - Yes - - -
Date/Time
(MDT)
Sf
Temp Chem Water Layer Surface Precipitation
Sfc Pvt Sub Frz Factor Pct Dpth DpthThk IcePct Cond Salin FI Type Intens Accum Rate
03/22/2017 11:40 Wet 46.0F - 41F 3F 95 50% 0.10 in - 0% 2913 mhos 15000 - Yes - - -
03/22/2017 11:31 Wet 46.2F - 41F 3F 95 50% 0.10 in - 0% 2894 mhos 15000 - Yes - - -
03/22/2017 11:25 Wet 46.0F - 41F 3F 95 50% 0.10 in - 0% 2893 mhos 15000 - Yes - - -
03/22/2017 11:21 Wet 45.5F - 41F 3F 95 50% 0.00 in - 0% 5985 mhos 15000 - Yes - - -
03/22/2017 11:11 Wet 45.0F - 41F 3F 95 50% 0.00 in - 0% 5985 mhos 15000 - Yes - - -
03/22/2017 11:10 Wet 45.0F - 41F 3F 95 50% 0.00 in - 0% 5985 mhos 15000 - Yes - - -
03/22/2017 11:01 Wet 44.8F - 41F 3F 95 50% 0.10 in - 0% 5947 mhos 15000 - Yes - - -
03/22/2017 10:55 Wet 44.6F - 41F 3F 95 50% 0.10 in - 0% 5947 mhos 15000 - Yes - - -
03/22/2017 10:51 Wet 44.2F - 41F 3F 95 50% 0.10 in - 0% 5947 mhos 15000 - Yes - - -
03/22/2017 10:40 Wet 42.8F - 42F 3F 95 50% 0.10 in - 0% 5907 mhos 15000 - Yes - - -
03/22/2017 10:40 Wet 42.8F - 42F 3F 95 50% 0.10 in - 0% 5907 mhos 15000 - Yes - - -
03/22/2017 10:30 Wet 42.3F - 42F 3F 95 50% 0.10 in - 0% 5907 mhos 15000 - Yes - - -
03/22/2017 10:25 Wet 41.5F - 42F 3F 95 50% 0.10 in - 0% 5907 mhos 15000 - Yes - - -
03/22/2017 10:20 Wet 41.4F - 42F 3F 95 50% 0.10 in - 0% 5907 mhos 15000 - Yes - - -
03/22/2017 10:10 Wet 41.2F - 42F 3F 95 50% 0.10 in - 0% 5947 mhos 15000 - Yes - - -
Date/Time
(MDT)
Sf
Temp Chem Water Layer Surface Precipitation
Sfc Pvt Sub Frz Factor Pct Dpth DpthThk IcePct Cond Salin FI Type Intens Accum Rate
03/22/2017 10:10 Wet 41.2F - 42F 3F 95 50% 0.10 in - 0% 5947 mhos 15000 - Yes - - -
03/22/2017 10:00 Wet 41.4F - 42F 3F 95 50% 0.10 in - 0% 5907 mhos 15000 - Yes - - -
03/22/2017 09:55 Wet 41.4F - 42F 3F 95 50% 0.10 in - 0% 5907 mhos 15000 - Yes - - -
03/22/2017 09:50 Wet 41.4F - 42F 3F 95 50% 0.10 in - 0% 5907 mhos 15000 - Yes - - -
03/22/2017 09:40 Wet 41.7F - 42F 3F 95 50% 0.10 in - 0% 5907 mhos 15000 - Yes - - -
03/22/2017 09:40 Wet 41.7F - 42F 3F 95 50% 0.10 in - 0% 5907 mhos 15000 - Yes - - -
03/22/2017 09:30 Wet 40.6F - 42F 3F 95 50% 0.10 in - 0% 5907 mhos 15000 - Yes - - -
03/22/2017 09:25 Wet 40.1F - 42F 3F 95 50% 0.10 in - 0% 5907 mhos 15000 - Yes - - -
03/22/2017 09:20 Wet 39.7F - 42F 3F 95 50% 0.10 in - 0% 5907 mhos 15000 - Yes - - -
03/22/2017 09:10 Wet 39.0F - 42F 3F 95 50% 0.10 in - 0% 5907 mhos 15000 - Yes - - -
03/22/2017 09:10 Wet 39.0F - 42F 3F 95 50% 0.10 in - 0% 5907 mhos 15000 - Yes - - -
03/22/2017 09:00 Wet 38.8F - 42F 3F 95 50% 0.10 in - 0% 5907 mhos 15000 - Yes - - -
03/22/2017 08:55 Wet 38.5F - 42F 3F 95 50% 0.10 in - 0% 5907 mhos 15000 - Yes - - -
03/22/2017 08:50 Wet 38.1F - 42F 3F 95 50% 0.10 in - 0% 5907 mhos 15000 - Yes - - -
03/22/2017 08:40 Wet 37.8F - 42F 3F 95 50% 0.20 in - 0% 5903 mhos 15000 - Yes - - -
Date/Time
(MDT)
Sf
Temp Chem Water Layer Surface Precipitation
Sfc Pvt Sub Frz Factor Pct Dpth DpthThk IcePct Cond Salin FI Type Intens Accum Rate
03/22/2017 08:40 Wet 37.8F - 42F 3F 95 50% 0.20 in - 0% 5903 mhos 15000 - Yes - - -
03/22/2017 08:30 Wet 37.8F - 42F 3F 95 50% 0.10 in - 0% 5907 mhos 15000 - Yes - - -
03/22/2017 08:25 Wet 37.8F - 42F 3F 95 50% 0.10 in - 0% 5907 mhos 15000 - Yes - - -
03/22/2017 08:20 Wet 37.6F - 42F 3F 95 50% 0.10 in - 0% 5907 mhos 15000 - Yes - - -
03/22/2017 08:10 Wet 37.4F - 42F 3F 95 50% 0.10 in - 0% 5907 mhos 15000 - Yes - - -
03/22/2017 08:00 Wet 37.6F - 42F 3F 95 50% 0.20 in - 0% 5903 mhos 15000 - Yes - - -
03/22/2017 07:55 Wet 37.4F - 42F 3F 95 50% 0.10 in - 0% 5907 mhos 15000 - Yes - - -
03/22/2017 07:50 Wet 37.4F - 42F 3F 95 50% 0.10 in - 0% 5947 mhos 15000 - Yes - - -
03/22/2017 07:40 Wet 37.4F - 42F 3F 95 50% 0.10 in - 0% 5947 mhos 15000 - Yes - - -
03/22/2017 07:40 Wet 37.4F - 42F 3F 95 50% 0.10 in - 0% 5947 mhos 15000 - Yes - - -
03/22/2017 07:30 Wet 37.2F - 42F 3F 95 50% 0.00 in - 0% 6036 mhos 15000 - Yes - - -
03/22/2017 07:25 Wet 37.2F - 42F 3F 95 50% 0.00 in - 0% 6054 mhos 15000 - Yes - - -
03/22/2017 07:20 Wet 37.2F - 43F 3F 95 50% 0.00 in - 0% 6069 mhos 15000 - Yes - - -
03/22/2017 07:10 Wet 37.2F - 43F 3F 95 50% 0.00 in - 0% 6081 mhos 15000 - Yes - - -
03/22/2017 07:10 Wet 37.2F - 43F 3F 95 50% 0.00 in - 0% 6081 mhos 15000 - Yes - - -
Date/Time
(MDT)
Sf
Temp Chem Water Layer Surface Precipitation
Sfc Pvt Sub Frz Factor Pct Dpth DpthThk IcePct Cond Salin FI Type Intens Accum Rate
03/22/2017 07:00 Wet 37.2F - 43F 3F 95 50% 0.00 in - 0% 6081 mhos 15000 - Yes - - -
03/22/2017 06:55 Wet 37.4F - 43F 3F 95 50% 0.00 in - 0% 6091 mhos 15000 - Yes - - -
03/22/2017 06:50 Wet 37.4F - 43F 3F 95 50% 0.00 in - 0% 6091 mhos 15000 - Yes - - -
03/22/2017 06:40 Wet 37.6F - 43F 3F 95 50% 0.00 in - 0% 6112 mhos 15000 - Yes - - -
03/22/2017 06:40 Wet 37.6F - 43F 3F 95 50% 0.00 in - 0% 6112 mhos 15000 - Yes - - -
03/22/2017 06:29 Wet 37.8F - 43F 3F 95 50% 0.00 in - 0% 6117 mhos 15000 - Yes - - -
03/22/2017 06:25 Wet 37.6F - 43F 3F 95 50% 0.00 in - 0% 6117 mhos 15000 - Yes - - -
03/22/2017 06:19 Wet 37.8F - 43F 3F 95 50% 0.00 in - 0% 6122 mhos 15000 - Yes - - -
03/22/2017 06:10 Wet 37.8F - 43F 3F 95 50% 0.00 in - 0% 6130 mhos 15000 - Yes - - -
03/22/2017 06:09 Wet 37.8F - 43F 3F 95 50% 0.00 in - 0% 6130 mhos 15000 - Yes - - -
03/22/2017 05:59 Wet 37.9F - 43F 3F 95 50% 0.00 in - 0% 6136 mhos 15000 - Yes - - -
03/22/2017 05:55 Wet 37.8F - 43F 3F 95 50% 0.00 in - 0% 6139 mhos 15000 - Yes - - -
03/22/2017 05:49 Wet 37.9F - 43F 3F 95 50% 0.00 in - 0% 6144 mhos 15000 - Yes - - -
03/22/2017 05:40 Wet 37.9F - 43F 3F 95 50% 0.00 in - 0% 3001 mhos 15000 - Yes - - -
03/22/2017 05:39 Wet 37.9F - 43F 3F 95 50% 0.00 in - 0% 3001 mhos 15000 - Yes - - -
Date/Time
(MDT)
Sf
Temp Chem Water Layer Surface Precipitation
Sfc Pvt Sub Frz Factor Pct Dpth DpthThk IcePct Cond Salin FI Type Intens Accum Rate
03/22/2017 05:29 Wet 37.9F - 43F 3F 95 50% 0.00 in - 0% 1995 mhos 15000 - Yes - - -
03/22/2017 05:25 Wet 37.8F - 43F 3F 95 50% 0.00 in - 0% 1498 mhos 15000 - Yes - - -
03/22/2017 05:19 Wet 37.8F - 43F 3F 95 50% 0.00 in - 0% 1498 mhos 15000 - Yes - - -
03/22/2017 05:10 Wet 37.9F - 43F 3F 95 50% 0.00 in - 0% 1499 mhos 15000 - Yes - - -
03/22/2017 05:09 Wet 37.9F - 43F 3F 95 50% 0.00 in - 0% 1499 mhos 15000 - Yes - - -
03/22/2017 04:59 Wet 38.1F - 43F 3F 95 50% 0.00 in - 0% 1499 mhos 15000 - Yes - - -
03/22/2017 04:55 Wet 38.3F - 43F 3F 95 50% 0.00 in - 0% 1196 mhos 15000 - Yes - - -
03/22/2017 04:49 Wet 38.1F - 43F 3F 95 50% 0.00 in - 0% 1196 mhos 15000 - Yes - - -
03/22/2017 04:40 Wet 38.5F - 43F 3F 95 50% 0.00 in - 0% 1196 mhos 15000 - Yes - - -
03/22/2017 04:39 Wet 38.5F - 43F 3F 95 50% 0.00 in - 0% 1196 mhos 15000 - Yes - - -
03/22/2017 04:29 Wet 38.5F - 43F 3F 95 50% 0.00 in - 0% 1499 mhos 15000 - Yes - - -
03/22/2017 04:25 Wet 38.5F - 44F 3F 95 50% 0.00 in - 0% 1196 mhos 15000 - Yes - - -
03/22/2017 04:19 Wet 38.5F - 44F 3F 95 50% 0.00 in - 0% 1499 mhos 15000 - Yes - - -
03/22/2017 04:10 Wet 38.7F - 44F 3F 95 50% 0.00 in - 0% 1196 mhos 15000 - Yes - - -
03/22/2017 04:09 Wet 38.7F - 44F 3F 95 50% 0.00 in - 0% 1499 mhos 15000 - Yes - - -
Date/Time
(MDT)
Sf
Temp Chem Water Layer Surface Precipitation
Sfc Pvt Sub Frz Factor Pct Dpth DpthThk IcePct Cond Salin FI Type Intens Accum Rate
03/22/2017 03:59 Wet 38.8F - 44F 3F 95 50% 0.00 in - 0% 1196 mhos 15000 - Yes - - -
03/22/2017 03:55 Wet 38.8F - 44F 3F 95 50% 0.00 in - 0% 1195 mhos 15000 - None None - -
03/22/2017 03:49 Wet 39.0F - 44F 3F 95 50% 0.00 in - 0% 1195 mhos 15000 - None None - -
03/22/2017 03:40 Wet 39.2F - 44F 3F 95 50% 0.00 in - 0% 1195 mhos 15000 - Yes - - -
03/22/2017 03:39 Wet 39.4F - 44F 3F 95 50% 0.00 in - 0% 1195 mhos 15000 - None None - -
03/22/2017 03:29 Wet 39.4F - 44F 3F 95 50% 0.00 in - 0% 1195 mhos 15000 - Yes - - -
03/22/2017 03:25 Wet 39.7F - 44F 3F 95 50% 0.00 in - 0% 1195 mhos 15000 - Yes - - -
03/22/2017 03:19 Wet 39.7F - 44F 3F 95 50% 0.00 in - 0% 1196 mhos 15000 - Yes - - -
03/22/2017 03:10 Wet 39.9F - 44F 3F 95 50% 0.00 in - 0% 1196 mhos 15000 - Yes - - -
03/22/2017 03:08 Wet 39.9F - 44F 3F 95 50% 0.00 in - 0% 1196 mhos 15000 - Yes - - -
03/22/2017 02:58 Wet 39.9F - 44F 3F 95 50% 0.00 in - 0% 1196 mhos 15000 - Yes - - -
03/22/2017 02:55 Wet 40.1F - 44F 3F 95 50% 0.00 in - 0% 1196 mhos 15000 - None None - -
03/22/2017 02:48 Wet 40.1F - 44F 3F 90 50% 0.00 in - 0% 1197 mhos 15000 - None None - -
03/22/2017 02:40 Wet 39.9F - 44F 3F 90 50% 0.00 in - 0% 999 mhos 15000 - None None - -
03/22/2017 02:38 Wet 39.9F - 44F 3F 90 50% 0.00 in - 0% 999 mhos 15000 - Yes - - -
Date/Time
(MDT)
Sf
Temp Chem Water Layer Surface Precipitation
Sfc Pvt Sub Frz Factor Pct Dpth DpthThk IcePct Cond Salin FI Type Intens Accum Rate
03/22/2017 02:28 Wet 40.3F - 44F 3F 90 50% 0.00 in - 0% 999 mhos 15000 - None None - -
03/22/2017 02:25 Wet 40.3F - 44F 3F 90 50% 0.00 in - 0% 999 mhos 15000 - None None - -
03/22/2017 02:18 Wet 40.5F - 44F 3F 95 50% 0.00 in - 0% 999 mhos 15000 - None None - -
03/22/2017 02:10 Wet 40.8F - 44F 3F 95 50% 0.00 in - 0% 998 mhos 15000 - None None - -
03/22/2017 02:08 Wet 41.0F - 44F 3F 95 50% 0.00 in - 0% 998 mhos 15000 - None None - -
03/22/2017 01:58 Wet 41.0F - 44F 3F 95 50% 0.00 in - 0% 853 mhos 15000 - Yes - - -
03/22/2017 01:55 Wet 41.0F - 44F 3F 95 50% 0.00 in - 0% 662 mhos 15000 - Yes - - -
03/22/2017 01:48 Wet 40.6F - 44F 3F 70 50% 0.00 in - 0% 269 mhos 15000 - Yes - - -
03/22/2017 01:40 Wet 39.9F - 44F 3F 60 50% 0.00 in - 0% 297 mhos 15000 - Yes - - -
03/22/2017 01:38 Wet 39.7F - 44F 3F 60 50% 0.00 in - 0% 330 mhos 15000 - None None - -
03/22/2017 01:28 Wet 39.2F - 44F 3F 55 50% 0.00 in - 0% 497 mhos 15000 - None None - -
03/22/2017 01:25 Wet 39.4F - 44F 3F 50 50% 0.00 in - 0% 597 mhos 15000 - None None - -
03/22/2017 01:18 Wet 39.6F - 44F 3F 45 50% 0.00 in - 0% 748 mhos 15000 - None None - -
03/22/2017 01:10 Wet 40.1F - 44F 3F 40 50% 0.00 in - 0% 1001 mhos 15000 - None None - -
03/22/2017 01:08 Wet 40.1F - 44F 3F 40 50% 0.00 in - 0% 1001 mhos 15000 - None None - -
Date/Time
(MDT)
Sf
Temp Chem Water Layer Surface Precipitation
Sfc Pvt Sub Frz Factor Pct Dpth DpthThk IcePct Cond Salin FI Type Intens Accum Rate
03/22/2017 00:58 Wet 39.9F - 44F 3F 95 50% 0.00 in - 0% 1196 mhos 15000 - Yes - - -
03/22/2017 00:55 Wet 40.3F - 44F 3F 95 50% 0.00 in - 0% 1196 mhos 15000 - Yes - - -
03/22/2017 00:48 Wet 40.1F - 44F 3F 95 50% 0.00 in - 0% 1499 mhos 15000 - None None - -
03/22/2017 00:40 Wet 40.6F - 44F 3F 95 50% 0.00 in - 0% 1499 mhos 15000 - Yes - - -
03/22/2017 00:38 Wet 40.6F - 44F 3F 95 50% 0.00 in - 0% 1499 mhos 15000 - Yes - - -
03/22/2017 00:27 Wet 40.8F - 44F 3F 95 50% 0.00 in - 0% 1499 mhos 15000 - Yes - - -
03/22/2017 00:25 Wet 40.8F - 44F 3F 95 50% 0.00 in - 0% 1499 mhos 15000 - Yes - - -
03/22/2017 00:17 Wet 41.0F - 44F 3F 95 50% 0.00 in - 0% 1499 mhos 15000 - Yes - - -
03/22/2017 00:10 Wet 41.5F - 44F 3F 95 50% 0.00 in - 0% 1498 mhos 15000 - Yes - - -
03/22/2017 00:07 Wet 41.5F - 44F 3F 95 50% 0.00 in - 0% 1498 mhos 15000 - None None - -
03/21/2017 23:57 Wet 42.1F - 44F 3F 95 50% 0.00 in - 0% 1498 mhos 15000 - Yes - - -
03/21/2017 23:55 Wet 42.1F - 44F 3F 95 50% 0.00 in - 0% 1498 mhos 15000 - None None - -
03/21/2017 23:47 Wet 42.3F - 44F 3F 95 50% 0.00 in - 0% 1499 mhos 15000 - Yes - - -
03/21/2017 23:40 Wet 42.3F - 44F 3F 95 50% 0.00 in - 0% 1499 mhos 15000 - None None - -
03/21/2017 23:37 Wet 42.3F - 44F 3F 95 50% 0.00 in - 0% 1499 mhos 15000 - None None - -
Date/Time
(MDT)
Sf
Temp Chem Water Layer Surface Precipitation
Sfc Pvt Sub Frz Factor Pct Dpth DpthThk IcePct Cond Salin FI Type Intens Accum Rate
03/21/2017 23:27 Wet 43.9F - 44F 3F 95 50% 0.00 in - 0% 1499 mhos 15000 - None None - -
03/21/2017 23:25 Wet 44.1F - 44F 3F 95 50% 0.00 in - 0% 1196 mhos 15000 - None None - -
03/21/2017 23:17 Wet 44.8F - 44F 3F 95 50% 0.00 in - 0% 997 mhos 15000 - None None - -
03/21/2017 23:10 Wet 45.5F - 44F 3F 95 50% 0.00 in - 0% 1196 mhos 15000 - Yes - - -
03/21/2017 23:07 Wet 45.9F - 44F 3F 95 50% 0.00 in - 0% 1196 mhos 15000 - Yes - - -
03/21/2017 22:57 Wet 45.7F - 44F 3F 95 50% 0.00 in - 0% 1196 mhos 15000 - Yes - - -
03/21/2017 22:55 Wet 45.7F - 44F 3F 95 50% 0.00 in - 0% 1195 mhos 15000 - Yes - - -
03/21/2017 22:47 Wet 45.5F - 44F 3F 95 50% 0.00 in - 0% 1498 mhos 15000 - Yes - - -
03/21/2017 22:40 Wet 45.9F - 44F 3F 95 50% 0.00 in - 0% 1497 mhos 15000 - Yes - - -
03/21/2017 22:37 Wet 45.9F - 44F 3F 95 50% 0.00 in - 0% 1496 mhos 15000 - Yes - - -
03/21/2017 22:27 Wet 48.0F - 44F 3F 45 50% 0.00 in - 0% 134 mhos 15000 - Yes - - -
03/21/2017 22:25 Wet 48.7F - 44F 29F 30 9% 0.00 in - 0% 30 mhos 2671 - Yes - - -
03/21/2017 22:17 Wet 49.5F - 44F 31F 5 5% 0.70 in - 0% 18 mhos 1555 - None None - -
03/21/2017 22:10 Wet 48.9F - 44F 28F 10 12% 0.00 in - 0% 39 mhos 3528 - Yes - - -
03/21/2017 22:07 Wet 49.1F - 44F 26F 5 18% 0.00 in - 0% 56 mhos 5500 - Yes - - -
Date/Time
(MDT)
Sf
Temp Chem Water Layer Surface Precipitation
Sfc Pvt Sub Frz Factor Pct Dpth DpthThk IcePct Cond Salin FI Type Intens Accum Rate
03/21/2017 21:57 Wet 48.7F - 44F 3F 5 50% 0.00 in - 0% 129 mhos 15000 - None None - -
03/21/2017 21:55 Wet 48.7F - 44F 3F 35 50% 0.00 in - 0% 141 mhos 15000 - Yes - - -
03/21/2017 21:46 Wet 50.5F - 44F 28F 60 11% 0.10 in - 0% 38 mhos 3421 - Yes - - -
03/21/2017 21:40 Dry 52.5F - 44F - - - - - - 1 mhos 61 - None None - -
03/21/2017 21:36 Dry 52.5F - 44F - - - - - - 1 mhos 63 - None None - -
03/21/2017 21:26 Dry 52.5F - 44F - - - - - - 1 mhos 63 - None None - -
03/21/2017 21:25 Dry 52.3F - 44F - - - - - - 1 mhos 63 - Yes - - -
03/21/2017 21:16 Dry 52.5F - 44F - - - - - - 1 mhos 62 - Yes - - -
03/21/2017 21:10 Dry 52.0F - 43F - - - - - - 1 mhos 63 - None None - -
03/21/2017 21:06 Dry 51.6F - 43F - - - - - - 1 mhos 63 - None None - -
03/21/2017 20:56 Dry 52.0F - 43F - - - - - - 1 mhos 63 - None None - -
03/21/2017 20:55 Dry 52.3F - 43F - - - - - - 1 mhos 63 - None None - -
03/21/2017 20:46 Dry 52.5F - 43F - - - - - - 1 mhos 62 - None None - -
03/21/2017 20:40 Dry 52.9F - 43F - - - - - - 1 mhos 62 - None None - -
03/21/2017 20:36 Dry 53.1F - 43F - - - - - - 1 mhos 62 - None None - -
Date/Time
(MDT)
Sf
Temp Chem Water Layer Surface Precipitation
Sfc Pvt Sub Frz Factor Pct Dpth DpthThk IcePct Cond Salin FI Type Intens Accum Rate
03/21/2017 20:26 Dry 53.8F - 43F - - - - - - 3 mhos 228 - None None - -
03/21/2017 20:25 Dry 54.0F - 43F - - - - - - 3 mhos 229 - None None - -
03/21/2017 20:16 Dry 54.5F - 43F - - - - - - 3 mhos 236 - None None - -
03/21/2017 20:10 Dry 55.2F - 43F - - - - - - 3 mhos 240 - None None - -
03/21/2017 20:06 Dry 55.6F - 43F - - - - - - 3 mhos 243 - None None - -
03/21/2017 19:56 Dry 56.5F - 43F - - - - - - 3 mhos 250 - None None - -
03/21/2017 19:55 Dry 56.8F - 43F - - - - - - 3 mhos 254 - None None - -
03/21/2017 19:46 Dry 57.9F - 42F - - - - - - 4 mhos 266 - None None - -
03/21/2017 19:40 Dry 58.6F - 42F - - - - - - 4 mhos 273 - None None - -
03/21/2017 19:36 Dry 59.4F - 42F - - - - - - 4 mhos 270 - None None - -
03/21/2017 19:26 Dry 61.0F - 42F - - - - - - 4 mhos 279 - None None - -
03/21/2017 19:25 Dry 61.0F - 42F - - - - - - 4 mhos 287 - None None - -
03/21/2017 19:16 Dry 62.6F - 42F - - - - - - 4 mhos 314 - None None - -
03/21/2017 19:10 Dry 63.7F - 42F - - - - - - 5 mhos 332 - None None - -
03/21/2017 19:06 Dry 64.6F - 42F - - - - - - 5 mhos 339 - None None - -
Date/Time
(MDT)
Sf
Temp Chem Water Layer Surface Precipitation
Sfc Pvt Sub Frz Factor Pct Dpth DpthThk IcePct Cond Salin FI Type Intens Accum Rate
03/21/2017 18:56 Dry 68.2F - 42F - - - - - - 5 mhos 357 - None None - -
03/21/2017 18:55 Dry 68.5F - 42F - - - - - - 5 mhos 358 - None None - -
03/21/2017 18:46 Dry 71.8F - 42F - - - - - - 6 mhos 365 - None None - -
03/21/2017 18:40 Dry 72.3F - 42F - - - - - - 5 mhos 352 - None None - -
03/21/2017 18:36 Dry 72.3F - 42F - - - - - - 6 mhos 362 - None None - -
03/21/2017 18:26 Dry 72.3F - 41F - - - - - - 6 mhos 371 - None None - -
03/21/2017 18:25 Dry 71.8F - 41F - - - - - - 6 mhos 386 - None None - -
03/21/2017 18:16 Dry 72.5F - 41F - - - - - - 6 mhos 412 - None None - -
03/21/2017 18:10 Dry 74.8F - 41F - - - - - - 7 mhos 442 - None None - -
03/21/2017 18:06 Dry 77.0F - 41F - - - - - - 8 mhos 473 - None None - -
03/21/2017 17:56 Dry 80.6F - 41F - - - - - - 8 mhos 476 - None None - -
03/21/2017 17:55 Dry 80.2F - 41F - - - - - - 8 mhos 487 - None None - -
03/21/2017 17:46 Dry 81.1F - 41F - - - - - - 8 mhos 503 - None None - -
03/21/2017 17:40 Dry 81.9F - 41F - - - - - - 8 mhos 483 - None None - -
03/21/2017 17:36 Dry 82.8F - 41F - - - - - - 8 mhos 476 - None None - -
Date/Time
(MDT)
Sf
Temp Chem Water Layer Surface Precipitation
Sfc Pvt Sub Frz Factor Pct Dpth DpthThk IcePct Cond Salin FI Type Intens Accum Rate
03/21/2017 17:26 Dry 83.1F - 40F - - - - - - 7 mhos 434 - None None - -
03/21/2017 17:25 Dry 82.9F - 40F - - - - - - 8 mhos 472 - None None - -
03/21/2017 17:16 Dry 81.9F - 40F - - - - - - 0 mhos 0 - None None - -
03/21/2017 17:10 Dry 78.8F - 40F - - - - - - 7 mhos 412 - None None - -
03/21/2017 17:06 Dry 75.0F - 40F - - - - - - 7 mhos 412 - None None - -
03/21/2017 16:56 Dry 79.2F - 40F - - - - - - 7 mhos 419 - None None - -
03/21/2017 16:55 Dry 78.1F - 40F - - - - - - 7 mhos 422 - None None - -
03/21/2017 16:46 Dry 75.9F - 40F - - - - - - 7 mhos 471 - None None - -
03/21/2017 16:40 Dry 78.8F - 40F - - - - - - 7 mhos 449 - None None - -
03/21/2017 16:36 Dry 82.8F - 40F - - - - - - 8 mhos 479 - None None - -
03/21/2017 16:26 Dry 83.7F - 40F - - - - - - 7 mhos 418 - None None - -
03/21/2017 16:25 Dry 83.5F - 40F - - - - - - 7 mhos 406 - None None - -
Change End Date:

Copyright © 1998-2015 Vaisala, Inc.
All Rights Reserved
Send comments about the data to:
SCAN Web ® is a registered trademark of Vaisala, Inc.
SCAN Web Version 6.0